Wind_Speed
16 13 14 10 10 11 10 8 8 5 5 10 17 8 14 8 10 5 6 7 8 9 10 10 10 8 6 4 4 4 4 6 5 5 6 10 10 13 13 14 12 12 13 15
8 14 3 5 6 7 9 11 11 11 4 9 16 10 4 3 4 5 2 6 10 9 8 9 9 8 6 4 4 5 5 6 6 6 7 9 10 11 13 13 12 20 19 17
17 9 6 3 6 11 7 8 11 14 14 15 9 19 8 9 8 4 3 3 5 8 9 9 8 7 6 6 5 4 5 5 6 7 7 11 12 13 12 10 15 15 18 18
10 10 3 7 6 7 5 9 10 12 12 9 3 8 10 4 9 7 6 10 11 7 5 3 3 4 6 6 6 5 5 5 5 8 6 9 11 10 11 15 16 19 18 19
2 4 8 12 13 6 10 11 9 11 12 9 2 9 4 4 7 7 4 2 1 2 4 0 3 3 3 2 4 5 5 4 6 9 8 7 8 11 13 14 17 20 17 17
5 5 3 12 3 4 8 14 13 10 11 6 6 6 6 6 12 4 3 4 5 8 2 2 3 4 5 2 4 4 4 4 6 7 8 10 12 15 15 15 19 17 18 19
6 11 6 4 11 8 10 12 6 5 3 3 6 6 13 8 7 6 10 11 10 10 4 4 4 3 1 3 5 5 5 4 6 6 7 9 12 14 14 16 16 19 20 20
10 10 11 4 6 11 10 8 7 9 9 11 9 3 7 5 3 5 8 9 10 16 9 4 4 2 7 5 5 5 6 8 9 9 9 8 11 10 14 15 18 19 19 19
3 5 8 3 2 6 7 3 5 8 11 10 3 3 6 4 2 2 11 10 14 13 5 9 4 3 7 7 6 7 9 10 11 10 9 9 9 17 17 17 18 19 21 19
4 4 5 9 6 6 16 8 2 6 5 11 14 7 2 9 14 16 16 19 16 12 13 4 6 2 6 8 9 8 10 12 12 12 11 11 15 19 16 17 18 20 19 21
6 5 5 8 8 12 9 4 5 4 2 9 10 12 12 10 12 12 16 18 16 9 7 5 4 7 6 10 12 15 15 16 16 15 14 19 16 18 18 19 20 19 19 18
2 4 5 2 9 10 7 8 5 6 13 10 10 4 12 12 14 11 14 10 13 11 9 10 8 10 10 11 14 17 17 17 18 15 18 17 16 16 19 20 19 20 19 20
1 6 9 6 8 13 6 5 5 1 7 13 10 7 13 10 11 10 10 11 11 6 11 14 14 15 11 15 18 19 19 18 18 20 19 16 15 19 20 19 21 20 20 20
1 6 10 11 7 9 8 2 3 4 9 12 12 17 15 10 10 11 13 11 13 10 13 15 15 18 20 20 19 20 19 16 17 12 12 16 18 19 19 20 22 19 23 18
3 8 7 7 8 8 8 12 8 10 12 10 11 14 13 9 9 7 9 11 13 17 17 16 17 18 20 19 20 21 16 13 10 10 13 16 17 17 17 22 22 21 21 18
3 5 7 10 6 8 10 12 13 9 6 11 10 13 7 17 8 12 11 10 14 16 16 17 18 19 20 21 22 20 14 9 10 12 14 15 16 15 20 21 19 18 16 13
3 4 5 13 3 8 12 7 8 8 9 15 15 13 11 9 8 9 8 13 14 14 14 16 18 21 23 21 20 15 10 9 11 13 14 15 15 17 19 18 17 18 15 11
5 6 8 8 8 13 6 4 4 6 8 11 13 9 8 7 5 12 18 21 12 12 15 18 21 23 20 19 15 10 8 10 12 13 14 14 16 16 16 15 17 17 14 10
6 6 7 4 9 13 7 8 1 5 11 13 7 10 8 6 2 13 12 4 9 13 17 19 21 21 17 15 12 8 9 11 12 13 12 14 16 14 15 13 17 15 12 12
5 5 7 9 12 13 10 6 4 8 8 11 8 7 10 11 6 2 4 8 12 15 19 21 20 19 16 12 9 8 9 11 11 12 12 14 14 14 13 11 12 10 12 11
6 5 10 9 9 6 10 7 7 6 4 6 6 5 6 7 8 5 7 10 13 17 20 20 19 18 14 9 7 8 10 10 11 10 10 12 12 15 11 12 10 11 11 11
7 7 8 7 6 11 12 6 6 4 2 4 3 4 4 4 3 4 9 12 15 18 20 19 19 16 12 8 8 9 10 10 9 9 9 10 12 11 10 10 8 10 10 10
7 4 6 6 6 5 5 6 3 3 4 1 1 1 2 2 4 7 11 14 15 17 18 18 17 14 9 6 8 9 9 10 10 8 9 10 11 9 10 9 9 9 8 9
7 8 6 7 6 8 3 9 4 4 3 1 3 2 0 3 6 9 13 14 15 17 16 18 15 11 7 6 8 8 9 9 10 10 9 8 8 7 10 9 10 9 8 7
6 4 4 7 13 13 9 5 4 4 2 3 3 3 1 3 7 11 13 13 15 15 15 16 14 9 5 6 7 8 9 10 9 9 9 10 8 6 7 8 10 8 8 6
11 7 8 7 8 7 7 1 3 3 4 5 5 3 1 5 8 11 12 14 14 15 15 14 11 7 5 6 7 7 8 8 7 9 7 10 7 9 5 6 6 10 10 10
Wind_Direction
208 240 246 19 3 347 331 312 302 88 100 285 301 298 284 21 300 269 254 221 198 199 169 190 197 201 202 203 223 218 252 246 263 263 278 283 286 306 297 308 295 285 298 300
205 238 7 7 336 303 279 296 28 305 88 297 288 295 65 25 5 335 280 180 186 177 177 192 196 200 213 225 232 243 249 252 263 255 278 275 283 294 297 292 285 322 311 308
250 33 40 272 225 263 275 349 351 322 317 266 279 272 139 130 114 107 174 115 158 183 180 183 205 225 232 246 253 258 258 243 259 249 274 298 315 314 305 314 307 301 293 305
264 74 259 238 233 319 10 6 322 311 306 319 323 282 121 99 111 116 159 176 163 160 194 181 266 236 244 258 252 250 244 240 301 292 276 279 296 310 300 310 306 301 306 300
190 176 208 240 47 360 3 327 301 292 273 296 104 310 84 222 142 119 135 146 238 246 186 40 183 208 239 245 255 246 221 242 271 284 307 284 293 296 307 306 301 307 320 304
101 33 312 68 82 301 289 266 265 261 246 193 3 332 76 44 11 34 157 239 247 269 193 225 191 240 222 281 297 246 239 249 283 304 296 304 305 310 311 312 316 313 310 312
171 187 101 269 271 81 326 335 327 264 251 24 58 279 72 49 28 339 337 324 296 265 271 311 212 161 340 297 294 267 246 277 269 269 270 278 295 307 324 310 311 306 313 309
215 166 179 132 327 339 23 314 27 317 342 319 50 7 116 84 27 319 312 305 296 289 303 321 330 282 306 326 278 258 281 297 286 280 272 275 287 299 315 305 310 315 314 308
278 128 106 23 281 299 229 28 358 301 268 285 147 34 77 202 6 354 324 294 292 296 310 292 290 270 302 309 282 279 296 294 283 276 278 294 316 320 312 316 314 312 309 303
359 279 149 125 227 65 312 12 316 326 320 332 340 348 350 11 10 351 331 327 335 355 304 308 305 282 309 304 294 276 309 301 284 271 276 272 292 306 301 315 316 314 309 302
317 259 12 184 222 158 216 154 275 310 347 319 317 326 44 4 351 350 338 336 323 342 356 9 0 336 316 315 317 315 308 307 300 293 286 294 312 312 319 318 314 312 302 307
134 304 329 318 254 346 299 340 343 342 343 320 281 336 27 8 8 18 342 11 21 357 347 333 336 333 316 322 323 323 322 313 313 289 291 304 321 323 313 315 318 301 304 304
153 232 266 233 120 19 319 283 339 245 271 303 303 304 23 26 21 19 13 360 329 341 18 340 348 337 1 347 330 324 320 318 296 294 299 313 320 322 323 321 308 312 313 317
307 269 278 297 168 193 228 199 231 317 280 327 322 336 325 29 18 360 351 339 342 356 15 5 351 346 339 337 339 333 332 311 306 315 325 322 326 327 328 312 316 317 321 324
250 254 246 299 329 298 313 302 320 316 324 316 325 318 359 19 350 5 10 353 359 13 5 353 352 346 335 338 335 335 334 337 336 339 333 332 333 335 317 324 324 324 321 318
188 275 291 292 221 281 295 298 284 267 313 311 317 307 96 316 360 21 353 355 11 6 0 352 345 343 339 335 335 337 338 350 358 347 342 342 343 339 336 339 343 341 331 336
242 278 247 277 117 304 280 311 359 332 329 343 319 336 329 358 13 352 15 22 14 5 355 350 344 340 335 334 335 337 348 355 355 352 352 351 347 354 353 352 355 359 4 16
250 241 277 270 275 278 65 238 336 334 286 305 317 342 359 4 355 43 32 22 7 7 352 346 340 336 337 336 336 338 349 353 353 355 359 352 4 4 1 6 17 21 27 45
281 259 280 268 273 302 347 39 215 318 320 312 353 3 347 338 305 54 30 356 7 356 350 344 339 339 341 338 340 346 354 352 356 3 358 9 5 4 11 12 16 21 44 49
215 253 271 284 291 288 42 145 11 324 303 31 6 20 6 327 59 191 22 3 356 353 348 345 344 343 342 343 350 356 356 356 6 0 10 12 6 15 9 11 12 25 32 42
242 258 260 271 291 289 50 39 353 304 29 17 9 20 8 31 42 36 1 353 349 345 346 345 346 346 343 346 359 5 360 5 4 0 18 12 20 34 17 33 42 28 37 47
269 302 287 264 300 290 25 341 352 39 317 311 22 18 67 77 42 5 349 343 344 344 346 347 346 347 347 358 3 6 4 8 350 13 18 13 23 27 18 18 21 31 45 43
260 292 327 350 326 352 313 326 325 276 275 310 339 81 85 23 7 347 338 341 342 345 346 348 349 350 354 12 14 9 6 7 352 16 17 9 20 17 29 17 26 35 49 55
198 173 249 271 258 307 333 297 268 240 262 186 143 162 101 8 340 341 341 342 341 344 346 347 348 353 358 9 6 11 10 346 3 25 14 13 16 31 31 22 22 30 27 51
33 130 215 272 265 263 259 236 299 194 203 193 182 163 107 351 345 345 343 343 339 339 341 345 346 352 1 358 3 8 10 340 6 27 18 4 1 22 4 26 44 55 48 60
261 241 267 284 347 319 308 238 215 236 231 215 188 185 23 355 349 345 343 340 336 335 336 341 343 344 347 350 355 3 1 2 18 20 17 15 21 7 14 13 54 59 57 56
Height
1531 1525 1521 1520 1518 1518 1519 1520 1521 1517 1520 1526 1519 1521 1516 1520 1527 1524 1530 1533 1538 1541 1546 1552 1554 1556 1557 1558 1558 1559 1559 1558 1558 1560 1561 1560 1555 1554 1555 1556 1553 1552 1550 1547
1526 1528 1516 1521 1521 1522 1521 1521 1530 1519 1520 1526 1518 1517 1513 1524 1527 1530 1530 1533 1537 1541 1546 1551 1552 1554 1555 1556 1556 1557 1557 1557 1556 1558 1558 1558 1556 1556 1555 1552 1550 1547 1544 1542
1523 1521 1522 1524 1525 1525 1524 1529 1531 1532 1522 1514 1520 1517 1517 1521 1526 1532 1533 1534 1537 1539 1541 1546 1550 1552 1554 1555 1555 1555 1555 1555 1554 1555 1556 1554 1553 1552 1551 1550 1548 1546 1541 1538
1519 1522 1525 1526 1524 1528 1531 1528 1528 1528 1529 1529 1517 1533 1519 1521 1523 1527 1533 1535 1536 1539 1543 1545 1549 1551 1552 1553 1554 1554 1553 1553 1553 1552 1552 1552 1550 1549 1548 1546 1545 1541 1538 1534
1524 1525 1528 1526 1529 1531 1533 1530 1529 1526 1525 1523 1525 1524 1531 1520 1521 1526 1529 1534 1536 1538 1538 1540 1545 1549 1550 1552 1553 1553 1552 1551 1550 1549 1549 1549 1549 1547 1545 1542 1539 1535 1533 1530
1522 1525 1525 1525 1531 1533 1530 1525 1519 1521 1515 1535 1530 1532 1534 1530 1526 1524 1528 1532 1533 1535 1537 1539 1541 1547 1547 1550 1552 1552 1551 1549 1548 1547 1545 1544 1543 1540 1538 1537 1534 1533 1529 1526
1528 1527 1530 1533 1530 1529 1527 1531 1534 1547 1539 1539 1522 1530 1533 1527 1528 1531 1531 1531 1530 1530 1534 1536 1534 1542 1547 1548 1550 1551 1550 1549 1547 1545 1543 1541 1539 1537 1536 1533 1531 1526 1524 1521
1534 1542 1530 1533 1532 1534 1533 1535 1551 1571 1554 1540 1520 1538 1532 1527 1531 1534 1534 1534 1534 1532 1532 1535 1538 1541 1545 1546 1548 1549 1548 1547 1545 1543 1541 1538 1535 1534 1531 1530 1526 1523 1519 1516
1531 1534 1528 1532 1534 1536 1540 1563 1538 1549 1534 1540 1530 1520 1516 1525 1524 1527 1529 1528 1528 1529 1532 1536 1539 1542 1546 1547 1547 1547 1546 1544 1543 1541 1538 1536 1533 1532 1529 1525 1521 1519 1514 1511
1528 1542 1527 1534 1536 1539 1539 1537 1547 1542 1564 1569 1540 1531 1555 1532 1532 1532 1533 1531 1530 1532 1533 1534 1537 1539 1545 1547 1545 1544 1544 1542 1540 1538 1535 1533 1528 1524 1525 1522 1517 1513 1510 1505
1530 1538 1551 1534 1535 1547 1542 1556 1542 1542 1548 1563 1557 1540 1526 1533 1533 1535 1537 1536 1534 1532 1534 1536 1540 1542 1545 1546 1544 1544 1542 1540 1538 1536 1533 1530 1525 1522 1521 1518 1513 1509 1504 1501
1533 1537 1545 1566 1535 1535 1534 1537 1542 1559 1562 1550 1549 1548 1532 1536 1537 1539 1541 1537 1540 1542 1541 1541 1541 1542 1544 1543 1542 1542 1541 1539 1537 1532 1530 1527 1524 1522 1518 1513 1510 1504 1501 1497
1537 1542 1551 1542 1541 1557 1557 1536 1543 1547 1552 1557 1557 1546 1527 1532 1538 1540 1541 1542 1541 1542 1541 1543 1542 1543 1543 1543 1543 1541 1539 1537 1532 1530 1528 1526 1524 1519 1514 1510 1505 1501 1497 1493
1544 1540 1545 1550 1554 1543 1550 1538 1539 1548 1559 1551 1547 1544 1535 1534 1540 1542 1545 1545 1543 1542 1543 1545 1547 1545 1544 1543 1542 1540 1537 1532 1531 1529 1528 1525 1522 1517 1512 1506 1502 1498 1494 1489
1543 1546 1537 1533 1536 1537 1537 1538 1536 1543 1544 1556 1549 1546 1537 1539 1542 1542 1545 1546 1544 1545 1547 1549 1549 1548 1547 1544 1542 1539 1536 1533 1529 1528 1526 1523 1520 1515 1508 1504 1499 1495 1491 1487
1544 1545 1542 1541 1536 1540 1543 1538 1536 1538 1541 1544 1544 1545 1551 1545 1540 1544 1547 1548 1549 1551 1551 1551 1551 1549 1547 1545 1541 1538 1535 1532 1529 1528 1525 1522 1518 1512 1506 1502 1497 1493 1488 1485
1543 1540 1547 1550 1537 1543 1550 1537 1538 1540 1541 1545 1550 1543 1542 1543 1546 1550 1550 1550 1553 1555 1555 1553 1551 1549 1546 1544 1540 1537 1534 1532 1529 1527 1524 1521 1515 1511 1506 1502 1498 1491 1488 1485
1543 1544 1542 1549 1542 1564 1536 1535 1538 1543 1546 1543 1542 1542 1545 1547 1551 1552 1556 1557 1559 1558 1557 1554 1551 1548 1545 1542 1539 1537 1534 1532 1529 1526 1523 1519 1514 1511 1507 1503 1498 1494 1491 1489
1544 1543 1546 1552 1549 1537 1530 1541 1546 1546 1549 1544 1542 1545 1547 1547 1549 1560 1563 1562 1561 1560 1557 1554 1551 1547 1544 1541 1539 1536 1534 1532 1529 1526 1522 1518 1516 1511 1507 1505 1500 1496 1494 1492
1543 1544 1548 1546 1555 1557 1545 1541 1545 1546 1554 1549 1549 1549 1551 1553 1562 1564 1563 1562 1561 1559 1556 1553 1550 1547 1543 1540 1538 1536 1534 1532 1529 1526 1522 1520 1516 1511 1509 1506 1502 1501 1498 1496
1546 1544 1544 1541 1547 1539 1542 1544 1544 1557 1563 1554 1554 1555 1555 1555 1560 1562 1562 1561 1560 1558 1555 1552 1549 1546 1543 1540 1538 1536 1534 1532 1530 1525 1523 1520 1516 1513 1511 1508 1505 1503 1501 1499
1540 1544 1543 1544 1547 1556 1547 1546 1553 1557 1557 1557 1557 1558 1559 1560 1561 1562 1562 1560 1559 1556 1554 1551 1548 1545 1543 1540 1539 1537 1535 1533 1529 1525 1524 1521 1517 1515 1513 1510 1508 1506 1504 1503
1547 1540 1546 1548 1545 1548 1550 1553 1555 1556 1556 1556 1557 1560 1560 1561 1561 1561 1560 1559 1558 1556 1554 1551 1548 1545 1543 1541 1539 1537 1535 1533 1528 1526 1524 1522 1519 1518 1515 1513 1511 1509 1507 1507
1533 1541 1545 1548 1546 1546 1549 1553 1554 1555 1556 1558 1559 1560 1561 1561 1562 1561 1560 1559 1558 1556 1553 1551 1548 1545 1543 1542 1539 1537 1535 1532 1529 1527 1526 1524 1522 1520 1518 1516 1514 1513 1510 1509
1534 1543 1542 1546 1545 1545 1546 1548 1552 1554 1556 1558 1559 1560 1561 1562 1561 1560 1559 1558 1557 1556 1553 1551 1548 1546 1544 1542 1540 1537 1536 1532 1530 1528 1527 1525 1523 1522 1520 1518 1515 1515 1513 1512
1534 1536 1541 1540 1542 1546 1547 1549 1552 1554 1555 1557 1559 1560 1561 1561 1561 1560 1560 1558 1557 1555 1552 1550 1548 1546 1545 1543 1541 1538 1536 1533 1531 1529 1529 1527 1524 1523 1521 1519 1518 1517 1516 1514